User: anonymous   Login
Location: Killarney Provincial Park Observatory
(46.0124°N, 81.4000°W)
Time: 11:30:23
(UTC-05:00)
Language:

Iridium 22 - Orbit

View from above orbital plane
View from above orbital plane
View from above satellite
View from above satellite

Ground track
Ground track

The orbit data is extracted from the following two-line orbital elements,

1 24907U 97043E   14353.32342868  .00000904  00000-0  31562-3 0  1026
2 24907 086.3988 276.7274 0002178 098.5132 053.5560 14.34219795907271
Epoch (UTC): 19 December 2014 07:45:44
Eccentricity: 0.0002178
inclination: 86.3988°
perigee height: 776 km
apogee height: 779 km
right ascension of ascending node: 276.7274°
argument of perigee: 98.5132°
revolutions per day: 14.34219795
mean anomaly at epoch: 53.5560°
orbit number at epoch: 90727

The dashed part of the orbit path shows where the satellite is in the earth's shadow,  

DLR